Location: Baggett Branch
(32.6074°N, 97.0167°W)
Time: 22:59:29
(UTC+00:00)

Cosmos 2208 Rocket - Pass Details

Date: 10 February 2026
Orbit: 749 x 802 km, 74.0° (Epoch: 11 March)

Event Time Altitude Azimuth Distance (km) Brightness Sun altitude
Rises 12:44:29 0° 335° (NNW) 3,305 6.9 -7.2°
Reaches altitude 10° 12:46:58 10° 329° (NNW) 2,376 6.1 -6.7°
Maximum altitude 12:52:06 45° 258° (WSW) 1,084 4.4 -5.6°
Drops below altitude 10° 12:57:13 10° 187° (S) 2,366 6.6 -4.6°
Sets 12:59:41 0° 181° (S) 3,290 7.5 -4.0°
